• Currently

    Reported at Minneapolis, Minneapolis-St. Paul International Airport, MN
    9:53 AM CST MON MAY 29 2017
  • 59°F15°C
  • Overcast
    Overcast
  • Feels Like:59°F15°CDew Point:48°F9°CHumidity:68% Winds:NW 15 mph G 2124 kph G 34
    Pressure:29.8 in1009 hPaVisibility:10.00 miles16090.00 meters
Time Weather Temp Dew Point
Humidity Winds Visibility Pressure Precipitation
1 hr 24 hr
Friday, May 19
23:53 23:53 Mostly Cloudy Mostly Cloudy 48°F9°C 40°F4°C 74% ENE 6 mphENE 9 kph 10.0 miles16.1 km 30.15 in1021 hPa 0.00 in0.00 mm --
22:53 22:53 Partly Cloudy Partly Cloudy 49°F9°C 40°F4°C 71% E 9 mphE 15 kph 10.0 miles16.1 km 30.15 in1021 hPa 0.00 in0.00 mm --
21:53 21:53 Partly Cloudy Partly Cloudy 50°F10°C 40°F4°C 68% E 9 mphE 15 kph 10.0 miles16.1 km 30.15 in1021 hPa 0.00 in0.00 mm --
21:20 21:20 Partly Cloudy Partly Cloudy 50°F10°C 40°F4°C 68% E 9 mphE 15 kph 10.0 miles16.1 km 30.12 in1020 hPa 0.00 in0.00 mm --
20:53 20:53 Partly Cloudy Partly Cloudy 51°F11°C 40°F4°C 66% ENE 9 mphENE 15 kph 10.0 miles16.1 km 30.09 in1019 hPa 0.00 in0.00 mm --
19:53 19:53 Mostly Cloudy Mostly Cloudy 53°F12°C 41°F5°C 64% NE 13 mphNE 20 kph 10.0 miles16.1 km 30.09 in1019 hPa 0.00 in0.00 mm --
19:10 19:10 Cloudy Cloudy 53°F12°C 41°F5°C 64% NE 13 mphNE 20 kph 10.0 miles16.1 km 30.09 in1019 hPa 0.00 in0.00 mm --
18:53 18:53 Cloudy Cloudy 53°F12°C 41°F5°C 64% NNE 15 mphNNE 24 kph 10.0 miles16.1 km 30.09 in1019 hPa 0.00 in0.00 mm --
17:53 17:53 Cloudy Cloudy 53°F12°C 41°F5°C 64% NNE 12 mphNNE 19 kph 10.0 miles16.1 km 30.06 in1018 hPa 0.00 in0.00 mm --
16:53 16:53 Cloudy Cloudy 53°F12°C 42°F6°C 66% N 16 mphN 26 kph 10.0 miles16.1 km 30.06 in1018 hPa 0.00 in0.00 mm --
16:23 16:23 Cloudy Cloudy 55°F13°C 42°F6°C 62% NNE 17 mphNNE 28 kph 10.0 miles16.1 km 30.03 in1017 hPa 0.00 in0.00 mm --
15:53 15:53 Cloudy Cloudy 54°F12°C 42°F6°C 64% NNE 16 mphNNE 26 kph 10.0 miles16.1 km 30.03 in1017 hPa 0.00 in0.00 mm --
14:53 14:53 Cloudy Cloudy 55°F13°C 42°F6°C 62% NNE 14 mphNNE 22 kph 10.0 miles16.1 km 30 in1016 hPa 0.00 in0.00 mm --
14:00 14:00 Cloudy Cloudy 54°F12°C 42°F6°C 64% NNE 15 mphNNE 24 kph 10.0 miles16.1 km 30 in1016 hPa 0.00 in0.00 mm --
13:53 13:53 Cloudy Cloudy 55°F13°C 42°F6°C 62% N 13 mphN 20 kph 10.0 miles16.1 km 30 in1016 hPa 0.00 in0.00 mm --
12:53 12:53 Cloudy Cloudy 52°F11°C 42°F6°C 69% NNW 14 mphNNW 22 kph 10.0 miles16.1 km 30 in1016 hPa 0.00 in0.00 mm --
11:53 11:53 Cloudy Cloudy 51°F11°C 42°F6°C 71% NNE 12 mphNNE 19 kph 10.0 miles16.1 km 29.94 in1014 hPa 0.00 in0.03 mm --
10:53 10:53 Cloudy With Light Rain Cloudy With Light Rain 51°F11°C 42°F6°C 71% NNE 17 mphNNE 28 kph 10.0 miles16.1 km 29.91 in1013 hPa 0.00 in0.03 mm --
09:53 09:53 Cloudy Cloudy 50°F10°C 43°F6°C 77% NNE 17 mphNNE 28 kph 10.0 miles16.1 km 29.85 in1011 hPa 0.00 in0.03 mm --
09:22 09:22 Cloudy Cloudy 50°F10°C 42°F6°C 74% N 17 mphN 28 kph 10.0 miles16.1 km 29.83 in1010 hPa 0.00 in0.03 mm --
08:53 08:53 Cloudy Cloudy 51°F11°C 43°F6°C 74% N 22 mphN 35 kph 10.0 miles16.1 km 29.8 in1009 hPa 0.00 in0.03 mm --
07:53 07:53 Cloudy With Light Rain Cloudy With Light Rain 49°F9°C 42°F6°C 77% NNE 15 mphNNE 24 kph 10.0 miles16.1 km 29.77 in1008 hPa 0.00 in0.03 mm --
06:53 06:53 Cloudy With Light Rain Cloudy With Light Rain 48°F9°C 43°F6°C 83% N 17 mphN 28 kph 10.0 miles16.1 km 29.71 in1006 hPa 0.00 in0.03 mm --
06:20 06:20 Cloudy Cloudy 49°F9°C 44°F7°C 83% N 18 mphN 30 kph 10.0 miles16.1 km 29.68 in1005 hPa 0.00 in0.00 mm --
05:53 05:53 Cloudy Cloudy 49°F9°C 44°F7°C 83% NNE 17 mphNNE 28 kph 8.0 miles12.9 km 29.65 in1004 hPa 0.00 in0.03 mm --
05:43 05:43 Cloudy Cloudy 49°F9°C 45°F7°C 86% N 15 mphN 24 kph 8.0 miles12.9 km 29.62 in1003 hPa 0.00 in0.03 mm --
05:36 05:36 Cloudy Cloudy 49°F9°C 45°F7°C 86% N 14 mphN 22 kph 10.0 miles16.1 km 29.62 in1003 hPa 0.00 in0.03 mm --
04:53 04:53 Cloudy With Light Rain Cloudy With Light Rain 50°F10°C 46°F8°C 86% N 16 mphN 26 kph 10.0 miles16.1 km 29.59 in1002 hPa 0.03 in19.35 mm --
03:53 03:53 Cloudy With Rain Cloudy With Rain 50°F10°C 47°F8°C 89% N 14 mphN 22 kph 5.0 miles8.0 km 29.53 in1000 hPa 0.09 in58.06 mm --
02:53 02:53 Cloudy With Rain Cloudy With Rain 51°F11°C 49°F9°C 92% N 10 mphN 17 kph 6.0 miles9.7 km 29.5 in999 hPa 0.07 in45.16 mm --
02:25 02:25 Cloudy With Light Rain Cloudy With Light Rain 51°F11°C 48°F9°C 89% N 16 mphN 26 kph 6.0 miles9.7 km 29.5 in999 hPa 0.02 in12.90 mm --
01:53 01:53 Cloudy With Light Rain Cloudy With Light Rain 53°F12°C 50°F10°C 89% N 13 mphN 20 kph 9.0 miles14.5 km 29.47 in998 hPa 0.09 in58.06 mm --
01:21 01:21 Cloudy With Light Rain Cloudy With Light Rain 54°F12°C 51°F11°C 90% NNW 12 mphNNW 19 kph 7.0 miles11.3 km 29.47 in998 hPa 0.05 in32.26 mm --
00:53 00:53 Cloudy With Rain Cloudy With Rain 54°F12°C 51°F11°C 90% N 10 mphN 17 kph 5.0 miles8.0 km 29.44 in997 hPa 0.16 in103.23 mm --
00:48 00:48 Cloudy With Rain Cloudy With Rain 54°F12°C 52°F11°C 94% N 10 mphN 17 kph 5.0 miles8.0 km 29.44 in997 hPa 0.14 in90.32 mm --